Weather History for KLEX - September, 2013

Change the Weather History Date:

Wednesday, September 4, 2013

  Actual Average Record
Temperature  
Mean Temperature 67 °F 72 °F  
Max Temperature 80 °F 83 °F 98 °F (1954)
Min Temperature 54 °F 62 °F 45 °F (1997)
Degree Days  
Heating Degree Days 0 0  
Month to date heating degree days 0 0  
Since 1 July heating degree days 3 2  
Cooling Degree Days 2 8  
Month to date cooling degree days 32 32  
Year to date cooling degree days 1070 1049  
Growing Degree Days 17 (Base 50)    
Moisture  
Dew Point 57 °F    
Average Humidity 71    
Maximum Humidity 93    
Minimum Humidity 48    
Precipitation  
Precipitation 0.00 in 0.09 in 1.09 in (1953)
Month to date precipitation T 0.37  
Year to date precipitation 43.64 32.04  
Snow  
Snow 0.00 in 0.00 in - ()
Month to date snowfall 0.0 0.0  
Since 1 July snowfall 0.0 0.0  
Since 1 September snowfall 0.0 0.0  
Snow Depth 0.00 in    
Sea Level Pressure  
Sea Level Pressure 30.12 in    
Wind  
Wind Speed 2 mph (ENE)    
Max Wind Speed 9 mph    
Max Gust Speed 12 mph    
Visibility 10 miles    
Events Rain    
T = Trace of Precipitation, MM = Missing Value Source: NWS Daily Summary

Daily Weather History Graph

Daily Weather History Graph

Search for Another Location

Airport or City:

Trip Planner

Search our weather history database for the weather conditions in past years. The results will help you decide how hot, cold, wet, or windy it might be!

Date:

Astronomy

Sep. 04, 2013 Rise Set
Actual Time 7:10 AM EDT 8:03 PM EDT
Civil Twilight 6:44 AM EDT 8:29 PM EDT
Nautical Twilight 6:12 AM EDT 9:01 PM EDT
Astronomical Twilight 5:39 AM EDT 9:34 PM EDT
Moon 6:22 AM EDT 7:22 PM EDT
Length of Visible Light 13h 45m
Length of Day
12h 52m
Waning Crescent, 1% of the Moon is Illuminated
Sep 4
Waning Crescent
Sep 5
New
Sep 12
First Quarter
Sep 19
Full
Sep 26
Last Quarter

Hourly Weather History & Observations

Time (EDT) Temp. Heat Index Dew Point Humidity Pressure Visibility Wind Dir Wind Speed Gust Speed Precip Events Conditions
12:54 AM 62.1 °F - 55.0 °F 78% 30.06 in 10.0 mi East 6.9 mph - N/A   Clear
1:54 AM 61.0 °F - 55.9 °F 83% 30.07 in 10.0 mi Calm Calm - N/A   Clear
2:54 AM 60.1 °F - 55.0 °F 83% 30.07 in 10.0 mi ESE 3.5 mph - N/A   Clear
3:54 AM 60.1 °F - 54.0 °F 80% 30.07 in 10.0 mi Calm Calm - N/A   Clear
4:54 AM 57.0 °F - 54.0 °F 89% 30.07 in 10.0 mi Calm Calm - N/A   Clear
5:54 AM 55.9 °F - 53.1 °F 90% 30.08 in 10.0 mi Calm Calm - N/A   Clear
6:54 AM 55.0 °F - 53.1 °F 93% 30.11 in 10.0 mi Calm Calm - N/A   Clear
7:54 AM 57.9 °F - 54.0 °F 87% 30.13 in 10.0 mi NE 3.5 mph - N/A   Clear
8:54 AM 64.0 °F - 59.0 °F 84% 30.14 in 10.0 mi ENE 4.6 mph - N/A   Clear
9:54 AM 70.0 °F - 59.0 °F 68% 30.14 in 10.0 mi NE 4.6 mph - N/A   Clear
10:54 AM 72.0 °F - 57.0 °F 59% 30.15 in 10.0 mi NE 3.5 mph - N/A   Clear
11:54 AM 75.0 °F - 57.0 °F 53% 30.16 in 10.0 mi ENE 8.1 mph - 0.00 in Rain Light Rain
12:54 PM 75.9 °F - 57.9 °F 54% 30.15 in 10.0 mi SSE 4.6 mph - 0.00 in   Clear
1:54 PM 77.0 °F - 57.9 °F 52% 30.14 in 10.0 mi Calm Calm - N/A   Clear
2:54 PM 78.1 °F - 59.0 °F 52% 30.14 in 10.0 mi NW 5.8 mph - N/A   Mostly Cloudy
3:54 PM 78.1 °F - 57.9 °F 50% 30.12 in 10.0 mi Variable 3.5 mph - N/A   Clear
4:54 PM 80.1 °F 80.7 °F 59.0 °F 48% 30.12 in 10.0 mi Calm Calm - N/A   Clear
5:54 PM 79.0 °F - 59.0 °F 50% 30.11 in 10.0 mi NW 5.8 mph - N/A   Clear
6:54 PM 77.0 °F - 59.0 °F 54% 30.12 in 10.0 mi North 5.8 mph - N/A   Clear
7:54 PM 73.9 °F - 60.1 °F 62% 30.11 in 10.0 mi Calm Calm - N/A   Clear
8:54 PM 70.0 °F - 60.1 °F 71% 30.12 in 10.0 mi Calm Calm - N/A   Clear
9:54 PM 66.9 °F - 60.1 °F 79% 30.13 in 10.0 mi Calm Calm - N/A   Clear
10:54 PM 64.9 °F - 60.1 °F 84% 30.14 in 10.0 mi SE 3.5 mph - N/A   Clear
11:54 PM 62.1 °F - 57.9 °F 86% 30.15 in 10.0 mi Calm Calm - N/A   Clear